Hauptseite
METAR-TAF:

METAR-TAF

Flughäfen :

Valley, Wales

Breite: 53-15N, Länge: 004-32W, Höhe: 1 m

Beobachtung

Neuester Wetterbericht von vor 45 Minuten, um 14:50 UTC
Wind 2 kt aus Nordost
Temperatur 18°C
Luftfeuchtigkeit 88%
Luftdruck 1016 hPa
Sichtweite 10 km oder mehr

METAR: EGOV 271450Z AUTO 04002KT 9999 FEW037/// BKN070/// 18/16 Q1016 RERA

Zeit: 16:35 (15:35 UTC)


TAF: fehlend

Wetterbeobachtungen und Prognosen von mehr als 4000 Flughäfen (METAR und TAF Bericht).

Die verfügbaren Stationen werden durch gelbe und rote Markierungen auf der Karte dargestellt.

Führen Sie die Maus auf sie, um den Namen der Station zu sehen.

Darauf klicken, um die Beobachtung von Wetterbeobachtungen und Prognosen zu sehen.

Um die Karte zu ändern : klicken Sie auf den grünen Tasten mit einem schwarzen Kreuz Zum Vergrößern, auf den grünen Button mit einem Gedankenstrich zu verkleinern, oder auf die grünen Pfeile für benachbarte Karten.


METAR-TAF: